Location: Peebles
(55.6412°N, 3.1714°W)
Time: 15:09:00
(UTC+01:00)

Helios 1A Rocket - Pass Details

Date: 26 September 2021
Orbit: 561 x 586 km, 98.3° (Epoch: 17 October)

Event Time Altitude Azimuth Distance (km) Brightness Sun altitude
Exits shadow 19:44:49 - 109° (ESE) 2,017 5.0 -7.0°
Reaches altitude 10° 19:45:13 10° 106° (ESE) 1,888 4.9 -7.1°
Maximum altitude 19:48:18 21° 57° (ENE) 1,314 4.3 -7.5°
Drops below altitude 10° 19:51:23 10° 8° (N) 1,887 5.6 -8.0°
Sets 19:53:54 0° 352° (N) 2,785 6.7 -8.3°
